TimeMST,TemperatureF,Dew PointF,Humidity,Sea Level PressureIn,VisibilityMPH,Wind Direction,Wind SpeedMPH,Gust SpeedMPH,PrecipitationIn,Events,Conditions,WindDirDegrees,DateUTC
12:15 AM,30.2,28.4,93,29.64,2.5,Calm,Calm,-,N/A,Snow,Light Snow,0,2012-11-10 07:15:00
12:35 AM,30.2,28.4,93,29.64,5.0,Calm,Calm,-,N/A,Snow,Light Snow,0,2012-11-10 07:35:00
12:55 AM,30.2,28.4,93,29.63,7.0,Calm,Calm,-,N/A,Snow,Light Snow,0,2012-11-10 07:55:00
1:15 AM,30.2,28.4,93,29.62,4.0,East,3.5,-,N/A,Snow,Light Snow,90,2012-11-10 08:15:00
1:35 AM,30.2,28.4,93,29.62,4.0,Calm,Calm,-,N/A,Snow,Light Snow,0,2012-11-10 08:35:00
1:55 AM,30.2,28.4,93,29.62,1.5,Calm,Calm,-,N/A,Snow,Light Snow,0,2012-11-10 08:55:00
2:15 AM,28.4,28.4,100,29.63,2.0,Calm,Calm,-,N/A,Snow,Light Snow,0,2012-11-10 09:15:00
2:35 AM,28.4,28.4,100,29.63,1.2,Calm,Calm,-,N/A,Snow,Snow,0,2012-11-10 09:35:00
2:55 AM,28.4,28.4,100,29.62,2.0,Calm,Calm,-,N/A,Snow,Light Snow,0,2012-11-10 09:55:00
3:15 AM,28.4,28.4,100,29.62,2.0,Calm,Calm,-,N/A,Snow,Light Snow,0,2012-11-10 10:15:00
3:35 AM,28.4,28.4,100,29.62,1.0,Calm,Calm,-,N/A,Snow,Snow,0,2012-11-10 10:35:00
3:55 AM,28.4,28.4,100,29.61,1.2,Calm,Calm,-,N/A,Snow,Light Snow,0,2012-11-10 10:55:00
4:15 AM,28.4,28.4,100,29.61,2.0,Calm,Calm,-,N/A,Snow,Light Snow,0,2012-11-10 11:15:00
5:35 AM,28.4,23.0,80,29.63,10.0,SW,4.6,-,N/A,,Mostly Cloudy,220,2012-11-10 12:35:00
5:55 AM,28.4,23.0,80,29.63,10.0,SW,3.5,-,N/A,,Mostly Cloudy,220,2012-11-10 12:55:00
6:15 AM,28.4,24.8,86,29.63,10.0,SW,4.6,-,N/A,,Mostly Cloudy,230,2012-11-10 13:15:00
6:35 AM,28.4,23.0,80,29.64,10.0,WSW,4.6,-,N/A,,Mostly Cloudy,240,2012-11-10 13:35:00
6:55 AM,28.4,24.8,86,29.64,10.0,Calm,Calm,-,N/A,,Overcast,0,2012-11-10 13:55:00
7:15 AM,28.4,24.8,86,29.65,10.0,Calm,Calm,-,N/A,,Overcast,0,2012-11-10 14:15:00
7:35 AM,28.4,23.0,80,29.66,10.0,Calm,Calm,-,N/A,,Overcast,0,2012-11-10 14:35:00
7:55 AM,28.4,24.8,86,29.67,10.0,ESE,3.5,-,N/A,,Overcast,120,2012-11-10 14:55:00
8:15 AM,28.4,26.6,93,29.68,5.0,ESE,3.5,-,N/A,Snow,Light Snow,120,2012-11-10 15:15:00
8:35 AM,28.4,26.6,93,29.68,3.0,ESE,3.5,-,N/A,Snow,Light Snow,110,2012-11-10 15:35:00
8:55 AM,28.4,24.8,86,29.70,1.0,Calm,Calm,-,N/A,Snow,Light Snow,0,2012-11-10 15:55:00
9:15 AM,26.6,24.8,93,29.70,0.5,Calm,Calm,-,N/A,Snow,Snow,0,2012-11-10 16:15:00
9:35 AM,28.4,26.6,93,29.70,1.0,Calm,Calm,-,N/A,Snow,Light Snow,0,2012-11-10 16:35:00
9:55 AM,28.4,26.6,93,29.71,0.5,SE,3.5,-,N/A,Snow,Light Snow,130,2012-11-10 16:55:00
10:15 AM,28.4,24.8,86,29.72,3.0,Calm,Calm,-,N/A,Snow,Light Snow,0,2012-11-10 17:15:00
10:35 AM,28.4,24.8,86,29.73,2.0,Calm,Calm,-,N/A,Snow,Light Snow,0,2012-11-10 17:35:00
10:55 AM,30.2,24.8,80,29.73,4.0,Calm,Calm,-,N/A,Snow,Light Snow,0,2012-11-10 17:55:00
11:15 AM,30.2,24.8,80,29.74,3.0,Calm,Calm,-,N/A,Snow,Light Snow,0,2012-11-10 18:15:00
11:35 AM,32.0,24.8,75,29.74,10.0,Calm,Calm,-,N/A,,Overcast,0,2012-11-10 18:35:00
11:55 AM,32.0,23.0,69,29.74,5.0,Calm,Calm,-,N/A,Snow,Light Snow,0,2012-11-10 18:55:00
12:15 PM,30.2,24.8,80,29.75,0.8,Calm,Calm,-,N/A,Snow,Light Snow,0,2012-11-10 19:15:00
12:35 PM,30.2,26.6,86,29.76,1.0,ESE,4.6,-,N/A,Snow,Light Snow,110,2012-11-10 19:35:00
12:55 PM,28.4,24.8,86,29.76,1.5,ESE,5.8,-,N/A,Snow,Light Snow,110,2012-11-10 19:55:00
1:15 PM,28.4,24.8,86,29.76,1.0,ESE,4.6,-,N/A,Snow,Light Snow,110,2012-11-10 20:15:00
1:35 PM,32.0,24.8,75,29.76,1.8,ESE,6.9,-,N/A,Snow,Light Snow,120,2012-11-10 20:35:00
1:55 PM,30.2,24.8,80,29.76,10.0,ESE,9.2,-,N/A,,Overcast,110,2012-11-10 20:55:00
2:15 PM,28.4,23.0,80,29.77,1.8,ESE,5.8,-,N/A,Snow,Light Snow,110,2012-11-10 21:15:00
2:35 PM,28.4,23.0,80,29.77,7.0,ESE,5.8,-,N/A,Snow,Light Snow,110,2012-11-10 21:35:00
2:55 PM,28.4,23.0,80,29.79,10.0,ESE,3.5,-,N/A,,Mostly Cloudy,120,2012-11-10 21:55:00
3:15 PM,28.4,23.0,80,29.79,7.0,Calm,Calm,-,N/A,Snow,Light Snow,0,2012-11-10 22:15:00
3:35 PM,28.4,23.0,80,29.80,10.0,Calm,Calm,-,N/A,,Mostly Cloudy,0,2012-11-10 22:35:00
3:55 PM,30.2,24.8,80,29.80,10.0,Calm,Calm,-,N/A,,Overcast,0,2012-11-10 22:55:00
4:15 PM,28.4,23.0,80,29.81,10.0,Calm,Calm,-,N/A,,Scattered Clouds,0,2012-11-10 23:15:00
4:35 PM,26.6,23.0,86,29.82,10.0,ENE,3.5,-,N/A,,Clear,70,2012-11-10 23:35:00
4:55 PM,21.2,19.4,93,29.82,10.0,Calm,Calm,-,N/A,,Clear,0,2012-11-10 23:55:00
5:15 PM,19.4,15.8,86,29.83,10.0,Calm,Calm,-,N/A,,Clear,0,2012-11-11 00:15:00
5:35 PM,17.6,15.8,93,29.84,10.0,SSE,3.5,-,N/A,,Scattered Clouds,160,2012-11-11 00:35:00
5:55 PM,19.4,15.8,86,29.85,10.0,ESE,4.6,-,N/A,,Mostly Cloudy,120,2012-11-11 00:55:00
6:15 PM,21.2,14.0,74,29.86,10.0,ENE,4.6,-,N/A,,Mostly Cloudy,70,2012-11-11 01:15:00
6:35 PM,19.4,14.0,80,29.87,10.0,Calm,Calm,-,N/A,,Mostly Cloudy,0,2012-11-11 01:35:00
6:55 PM,17.6,14.0,86,29.87,10.0,ESE,4.6,-,N/A,,Mostly Cloudy,110,2012-11-11 01:55:00
7:15 PM,17.6,14.0,86,29.88,10.0,East,6.9,-,N/A,,Scattered Clouds,100,2012-11-11 02:15:00
7:35 PM,17.6,14.0,86,29.88,10.0,East,6.9,-,N/A,,Clear,90,2012-11-11 02:35:00
7:55 PM,12.2,8.6,85,29.89,10.0,East,4.6,-,N/A,,Scattered Clouds,100,2012-11-11 02:55:00
8:15 PM,17.6,14.0,86,29.90,10.0,ESE,3.5,-,N/A,,Scattered Clouds,120,2012-11-11 03:15:00
8:35 PM,17.6,12.2,79,29.90,10.0,Calm,Calm,-,N/A,,Overcast,0,2012-11-11 03:35:00
8:55 PM,19.4,14.0,80,29.91,10.0,Calm,Calm,-,N/A,,Overcast,0,2012-11-11 03:55:00
9:35 PM,14.0,10.4,86,29.92,10.0,Calm,Calm,-,N/A,,Overcast,0,2012-11-11 04:35:00
9:55 PM,17.6,14.0,86,29.93,10.0,ESE,4.6,-,N/A,,Overcast,120,2012-11-11 04:55:00
10:15 PM,19.4,15.8,86,29.93,3.0,Calm,Calm,-,N/A,Snow,Light Snow,0,2012-11-11 05:15:00
10:35 PM,19.4,17.6,93,29.94,1.5,Calm,Calm,-,N/A,Snow,Light Snow,0,2012-11-11 05:35:00
11:55 PM,19.4,19.4,100,29.94,4.0,NW,3.5,-,N/A,Snow,Light Snow,310,2012-11-11 06:55:00